| time (UTC) | temp C | wind direction | speed KPH | gust KPH | rain 1hr cm | rain 24hr cm | rain mn cm | humidity % | barometer mb |
| 20260509224536 | 32 | 122 | 0.0 | 6.4 | 0.00 | 0.00 | 0.00 | 46 | 1007.8 |
| 20260509223037 | 33 | 235 | 0.0 | 4.8 | 0.00 | 0.00 | 0.00 | 46 | 1007.7 |
| 20260509221538 | 33 | 117 | 0.0 | 4.8 | 0.00 | 0.00 | 0.00 | 47 | 1007.8 |
| 20260509220031 | 32 | 342 | 0.0 | 6.4 | 0.00 | 0.00 | 0.00 | 46 | 1007.8 |
| 20260509214530 | 32 | 133 | 0.0 | 6.4 | 0.00 | 0.00 | 0.00 | 43 | 1007.9 |
| 20260509213031 | 32 | 91 | 1.6 | 6.4 | 0.00 | 0.00 | 0.00 | 49 | 1008.1 |
| 20260509211525 | 32 | 342 | 1.6 | 6.4 | 0.00 | 0.00 | 0.00 | 52 | 1008.2 |
| 20260509210023 | 32 | 267 | 1.6 | 6.4 | 0.00 | 0.00 | 0.00 | 52 | 1008.4 |
| 20260509204521 | 31 | 23 | 0.0 | 4.8 | 0.00 | 0.00 | 0.00 | 55 | 1008.7 |
| 20260509203025 | 31 | 212 | 1.6 | 4.8 | 0.00 | 0.00 | 0.00 | 56 | 1009.1 |
| 20260509201521 | 32 | 13 | 1.6 | 9.7 | 0.00 | 0.00 | 0.00 | 56 | 1009.1 |
| 20260509200019 | 31 | 123 | 1.6 | 9.7 | 0.00 | 0.00 | 0.00 | 58 | 1009.2 |
| 20260509194530 | 31 | 119 | 0.0 | 4.8 | 0.00 | 0.00 | 0.00 | 58 | 1009.3 |
| 20260509193022 | 31 | 359 | 1.6 | 8.0 | 0.00 | 0.00 | 0.00 | 61 | 1009.3 |
| 20260509191514 | 31 | 68 | 1.6 | 6.4 | 0.00 | 0.00 | 0.00 | 61 | 1009.4 |
| 20260509190012 | 31 | 95 | 1.6 | 6.4 | 0.00 | 0.00 | 0.00 | 61 | 1009.6 |
| 20260509184511 | 30 | 283 | 1.6 | 8.0 | 0.00 | 0.00 | 0.00 | 63 | 1009.5 |
| 20260509183013 | 30 | 1 | 1.6 | 4.8 | 0.00 | 0.00 | 0.00 | 63 | 1009.7 |
| 20260509181507 | 30 | 121 | 3.2 | 8.0 | 0.00 | 0.00 | 0.00 | 64 | 1009.8 |
| 20260509180005 | 30 | 281 | 1.6 | 8.0 | 0.00 | 0.00 | 0.00 | 67 | 1010.1 |
| 20260509174505 | 30 | 340 | 1.6 | 6.4 | 0.00 | 0.00 | 0.00 | 65 | 1010.2 |
| 20260509173002 | 30 | 278 | 3.2 | 6.4 | 0.00 | 0.00 | 0.00 | 65 | 1010.3 |
| 20260509171600 | 29 | 37 | 1.6 | 4.8 | 0.00 | 0.00 | 0.00 | 67 | 1010.5 |
| 20260509170057 | 28 | 268 | 1.6 | 8.0 | 0.00 | 0.00 | 0.00 | 68 | 1010.5 |
| 20260509164554 | 28 | 262 | 0.0 | 8.0 | 0.00 | 0.00 | 0.00 | 71 | 1010.4 |
| 20260509163056 | 27 | 314 | 3.2 | 8.0 | 0.00 | 0.00 | 0.00 | 71 | 1010.5 |
| 20260509161600 | 27 | 346 | 0.0 | 4.8 | 0.00 | 0.00 | 0.00 | 72 | 1010.6 |
| 20260509160048 | 27 | 217 | 0.0 | 6.4 | 0.00 | 0.00 | 0.00 | 74 | 1010.5 |
| 20260509154548 | 26 | 240 | 1.6 | 8.0 | 0.00 | 0.00 | 0.00 | 74 | 1010.2 |
| 20260509153055 | 26 | 255 | 0.0 | 6.4 | 0.00 | 0.00 | 0.00 | 75 | 1010.2 |
| 20260509151542 | 25 | 212 | 0.0 | 8.0 | 0.00 | 0.00 | 0.00 | 77 | 1010.3 |
| 20260509150039 | 25 | 307 | 1.6 | 8.0 | 0.00 | 0.00 | 0.00 | 77 | 1010.3 |
| 20260509144539 | 24 | 167 | 1.6 | 8.0 | 0.00 | 0.00 | 0.00 | 79 | 1010.3 |
| 20260509143033 | 23 | 249 | 1.6 | 6.4 | 0.00 | 0.00 | 0.00 | 82 | 1010.3 |
| 20260509141537 | 23 | 218 | 0.0 | 3.2 | 0.00 | 0.00 | 0.00 | 82 | 1010.2 |
| 20260509140027 | 23 | 47 | 0.0 | 8.0 | 0.00 | 0.00 | 0.00 | 85 | 1010.1 |
| 20260509134526 | 22 | 251 | 1.6 | 8.0 | 0.00 | 0.00 | 0.00 | 86 | 1010.0 |
| 20260509133026 | 22 | 196 | 0.0 | 3.2 | 0.00 | 0.00 | 0.00 | 89 | 1010.0 |
| 20260509131522 | 21 | 250 | 0.0 | 3.2 | 0.00 | 0.00 | 0.00 | 93 | 1009.9 |
| 20260509130017 | 21 | 93 | 0.0 | 1.6 | 0.00 | 0.00 | 0.00 | 94 | 1009.8 |
| 20260509124518 | 20 | 105 | 0.0 | 1.6 | 0.00 | 0.00 | 0.00 | 93 | 1009.9 |
| 20260509123016 | 20 | 119 | 0.0 | 1.6 | 0.00 | 0.00 | 0.00 | 93 | 1010.0 |
| 20260509121515 | 21 | 113 | 0.0 | 1.6 | 0.00 | 0.00 | 0.00 | 92 | 1009.9 |
| 20260509120015 | 21 | 156 | 0.0 | 1.6 | 0.00 | 0.00 | 0.00 | 92 | 1009.8 |
| 20260509114514 | 21 | 131 | 0.0 | 1.6 | 0.00 | 0.00 | 0.00 | 92 | 1009.8 |
| 20260509113014 | 21 | 130 | 0.0 | 1.6 | 0.00 | 0.00 | 0.00 | 92 | 1009.6 |
| 20260509111513 | 21 | 252 | 1.6 | 6.4 | 0.00 | 0.00 | 0.00 | 92 | 1009.4 |
| 20260509110012 | 21 | 244 | 0.0 | 3.2 | 0.00 | 0.00 | 0.00 | 92 | 1009.2 |
| 20260509104512 | 21 | 263 | 0.0 | 1.6 | 0.00 | 0.00 | 0.00 | 92 | 1009.1 |
| 20260509103011 | 21 | 28 | 0.0 | 0.0 | 0.00 | 0.00 | 0.00 | 92 | 1009.0 |
| 20260509101514 | 21 | 31 | 0.0 | 1.6 | 0.00 | 0.00 | 0.00 | 92 | 1009.1 |
| 20260509100011 | 21 | 32 | 0.0 | 1.6 | 0.00 | 0.00 | 0.00 | 92 | 1008.6 |
| 20260509094509 | 21 | 127 | 0.0 | 6.4 | 0.00 | 0.00 | 0.00 | 92 | 1008.3 |
| 20260509093010 | 20 | 131 | 1.6 | 8.0 | 0.00 | 0.00 | 0.00 | 92 | 1007.7 |
| 20260509091510 | 20 | 113 | 1.6 | 9.7 | 0.00 | 0.00 | 0.00 | 91 | 1007.4 |
| 20260509090008 | 20 | 131 | 1.6 | 12.9 | 0.00 | 0.00 | 0.00 | 90 | 1007.8 |
| 20260509084502 | 20 | 221 | 1.6 | 11.3 | 0.00 | 0.00 | 0.00 | 90 | 1008.3 |
| 20260509083121 | 20 | 177 | 3.2 | 8.0 | 0.00 | 0.00 | 0.00 | 89 | 1008.6 |
| 20260509081556 | 21 | 111 | 1.6 | 6.4 | 0.00 | 0.00 | 0.00 | 89 | 1009.6 |
| 20260509080059 | 21 | 129 | 0.0 | 3.2 | 0.00 | 0.00 | 0.00 | 89 | 1010.1 |
| 20260509074611 | 20 | 247 | 0.0 | 1.6 | 0.00 | 0.00 | 0.00 | 89 | 1010.3 |
| 20260509073106 | 20 | 137 | 0.0 | 1.6 | 0.00 | 0.00 | 0.00 | 89 | 1010.7 |
| 20260509071558 | 20 | 136 | 0.0 | 1.6 | 0.00 | 0.00 | 0.00 | 89 | 1010.9 |
| 20260509070056 | 20 | 137 | 0.0 | 1.6 | 0.00 | 0.00 | 0.00 | 88 | 1010.4 |
| 20260509064550 | 20 | 134 | 0.0 | 3.2 | 0.00 | 0.00 | 0.00 | 87 | 1010.1 |
| 20260509063059 | 21 | 73 | 0.0 | 3.2 | 0.00 | 0.00 | 0.00 | 87 | 1009.7 |
| 20260509061545 | 21 | 165 | 0.0 | 1.6 | 0.00 | 0.00 | 0.00 | 86 | 1010.2 |
| 20260509054544 | 21 | 245 | 0.0 | 1.6 | 0.00 | 0.00 | 0.00 | 85 | 1010.5 |
| 20260509053054 | 21 | 250 | 1.6 | 1.6 | 0.00 | 0.00 | 0.00 | 85 | 1010.9 |
| 20260509051546 | 21 | 8 | 0.0 | 1.6 | 0.00 | 0.00 | 0.00 | 85 | 1011.0 |
| 20260509050039 | 21 | 109 | 0.0 | 4.8 | 0.00 | 0.00 | 0.00 | 84 | 1010.1 |
| 20260509044538 | 21 | 247 | 1.6 | 8.0 | 0.00 | 0.00 | 0.00 | 83 | 1009.7 |
| 20260509043044 | 22 | 122 | 1.6 | 11.3 | 0.00 | 0.00 | 0.00 | 82 | 1009.1 |
| 20260509041536 | 22 | 167 | 0.0 | 3.2 | 0.00 | 0.00 | 0.00 | 81 | 1010.6 |
| 20260509040045 | 22 | 145 | 0.0 | 1.6 | 0.00 | 0.00 | 0.00 | 81 | 1010.8 |
| 20260509034536 | 22 | 124 | 0.0 | 0.0 | 0.00 | 0.00 | 0.00 | 81 | 1010.9 |
| 20260509033047 | 22 | 122 | 0.0 | 1.6 | 0.00 | 0.00 | 0.00 | 81 | 1010.2 |
| 20260509031533 | 22 | 121 | 0.0 | 6.4 | 0.00 | 0.00 | 0.00 | 81 | 1010.0 |
| 20260509030033 | 22 | 99 | 0.0 | 3.2 | 0.00 | 0.00 | 0.00 | 81 | 1010.1 |
| 20260509024535 | 22 | 218 | 0.0 | 3.2 | 0.00 | 0.00 | 0.00 | 81 | 1009.8 |
| 20260509023032 | 22 | 243 | 0.0 | 3.2 | 0.00 | 0.00 | 0.00 | 80 | 1009.4 |
| 20260509021532 | 22 | 169 | 1.6 | 4.8 | 0.00 | 0.00 | 0.00 | 80 | 1009.3 |
| 20260509020031 | 22 | 171 | 0.0 | 3.2 | 0.00 | 0.00 | 0.00 | 80 | 1009.2 |
| 20260509014532 | 22 | 107 | 0.0 | 1.6 | 0.00 | 0.00 | 0.00 | 79 | 1009.0 |
| 20260509013032 | 22 | 248 | 0.0 | 4.8 | 0.00 | 0.00 | 0.00 | 79 | 1008.8 |
| 20260509011530 | 22 | 122 | 0.0 | 3.2 | 0.00 | 0.00 | 0.00 | 78 | 1008.7 |
| 20260509010035 | 22 | 260 | 0.0 | 4.8 | 0.00 | 0.00 | 0.00 | 77 | 1008.5 |
| 20260509004529 | 22 | 281 | 1.6 | 4.8 | 0.00 | 0.00 | 0.00 | 76 | 1008.4 |
| 20260509003033 | 23 | 290 | 1.6 | 8.0 | 0.00 | 0.00 | 0.00 | 74 | 1008.3 |
| 20260509001530 | 23 | 108 | 0.0 | 8.0 | 0.00 | 0.00 | 0.00 | 74 | 1008.4 |
| 20260509000027 | 23 | 209 | 1.6 | 8.0 | 0.00 | 0.00 | 0.00 | 73 | 1008.5 |
| 20260508234529 | 23 | 138 | 3.2 | 8.0 | 0.00 | 0.00 | 0.00 | 71 | 1008.8 |
| 20260508233032 | 23 | 264 | 1.6 | 8.0 | 0.00 | 0.00 | 0.00 | 69 | 1008.8 |
| 20260508231525 | 24 | 157 | 1.6 | 8.0 | 0.00 | 0.00 | 0.00 | 70 | 1008.9 |
| 20260508230024 | 24 | 213 | 1.6 | 12.9 | 0.00 | 0.00 | 0.00 | 71 | 1009.1 |